カタログに戻る

STARLINK-5109

運用中通信VLEO
NORAD 54002·PAYLOAD·🇺🇸 United States

打ち上げ Oct 5, 2022 から Vandenberg Space Force Base

Loading…

次のパス (今後24時間)

TLE

最新Source: CelesTrak SupGP

元期: Sep 14, 2026, 20:47 UTC

1 54002C 22125AQ  26257.86645833  .00044930  00000+0  14452-2 0  2572
2 54002  53.1603  60.0026 0001256  79.9855 354.0765 15.31670825    11

AllMySatでSTARLINK-5109をリアルタイム追跡

Download on the App Store